Location: Cerroniocc
(13.7547°S, 72.0222°W)
Time: 10:45:05
(UTC+00:00)

ATLAS 2AS CENTAUR RB - Pass Details

Date: 05 July 2020
Orbit: 263 x 24291 km, 12.3° (Epoch: 10 August)

Event Time Altitude Azimuth Distance (km) Brightness Sun altitude
Rises 22:02:35 0° 284° (WNW) 15,965 10.9 5.9°
Reaches altitude 10° 22:25:56 10° 286° (WNW) 9,380 9.8 0.8°
Maximum altitude 22:47:04 57° 360° (N) 1,389 3.5 -3.9°
Drops below altitude 10° 22:51:04 10° 80° (E) 1,977 3.6 -4.8°
Enters shadow 22:51:58 - 84° (E) 2,358 4.0 -5.0°
